FW1414 Weather Reports


Display with metric or nautical units.
time (UTC)temp
F
wind
direction
speed
MPH
gust
MPH
rain 1hr
in
rain 24hr
in
rain mn
in
humidity
%
barometer
mb
20260508014319 68 279 2.0 4.0 0.00 0.00 0.00 12 1013.9
20260508013810 68 42 2.0 4.0 0.00 0.00 0.00 12 1013.8
20260508013329 69 313 1.0 3.0 0.00 0.00 0.00 12 1013.7
20260508012821 70 360 2.0 6.0 0.00 0.00 0.00 11 1013.7
20260508012318 70 22 3.0 6.0 0.00 0.00 0.00 10 1013.6
20260508011810 71 75 1.0 7.0 0.00 0.00 0.00 10 1013.5
20260508011329 71 360 1.0 5.0 0.00 0.00 0.00 10 1013.5
20260508010820 71 307 1.0 5.0 0.00 0.00 0.00 9 1013.5
20260508010340 71 360 2.0 5.0 0.00 0.00 0.00 9 1013.5
20260508005832 72 44 2.0 6.0 0.00 0.00 0.00 9 1013.7
20260508005324 72 96 2.0 11.0 0.00 0.00 0.00 10 1013.6
20260508004837 72 97 4.0 11.0 0.00 0.00 0.00 10 1013.7
20260508004335 72 80 2.0 9.0 0.00 0.00 0.00 10 1013.6
20260508003827 72 86 2.0 9.0 0.00 0.00 0.00 10 1013.8
20260508003325 73 35 6.0 9.0 0.00 0.00 0.00 9 1013.8
20260508002817 73 119 2.0 7.0 0.00 0.00 0.00 10 1013.9
20260508002314 74 86 4.0 7.0 0.00 0.00 0.00 10 1014.0
20260508001848 74 184 1.0 7.0 0.00 0.00 0.00 10 1014.0
20260508001325 74 142 1.0 7.0 0.00 0.00 0.00 9 1014.1
20260508000816 74 188 3.0 8.0 0.00 0.00 0.00 11 1014.2
20260508000314 74 188 3.0 8.0 0.00 0.00 0.00 10 1014.2
20260507235826 74 160 3.0 9.0 0.00 0.00 0.00 12 1014.2
20260507235329 74 159 2.0 9.0 0.00 0.00 0.00 10 1014.2
20260507234819 74 148 2.0 10.0 0.00 0.00 0.00 10 1014.4
20260507234319 73 212 3.0 10.0 0.00 0.00 0.00 12 1014.4
20260507233831 73 149 3.0 9.0 0.00 0.00 0.00 11 1014.4
20260507233329 74 86 2.0 6.0 0.00 0.00 0.00 12 1014.4
20260507232822 74 116 2.0 7.0 0.00 0.00 0.00 11 1014.5
20260507232341 74 167 1.0 7.0 0.00 0.00 0.00 12 1014.6
20260507231812 74 169 1.0 8.0 0.00 0.00 0.00 12 1014.6
20260507231309 74 114 3.0 8.0 0.00 0.00 0.00 13 1014.7
20260507230822 73 108 2.0 8.0 0.00 0.00 0.00 13 1014.7
20260507230319 74 191 1.0 8.0 0.00 0.00 0.00 13 1014.8
20260507225833 74 237 4.0 8.0 0.00 0.00 0.00 13 1014.8
20260507225331 74 211 3.0 9.0 0.00 0.00 0.00 15 1014.8
20260507224822 73 184 2.0 9.0 0.00 0.00 0.00 14 1014.9
20260507224320 74 182 3.0 7.0 0.00 0.00 0.00 15 1015.0
20260507223810 73 231 2.0 5.0 0.00 0.00 0.00 15 1015.0
20260507223330 73 248 1.0 5.0 0.00 0.00 0.00 14 1015.1
20260507222821 73 143 2.0 8.0 0.00 0.00 0.00 15 1015.2
20260507222319 73 134 2.0 10.0 0.00 0.00 0.00 19 1015.3
20260507221811 73 190 6.0 10.0 0.00 0.00 0.00 16 1015.5
20260507221309 73 251 4.0 9.0 0.00 0.00 0.00 17 1015.5
20260507220845 73 172 4.0 10.0 0.00 0.00 0.00 19 1015.5
20260507220322 72 186 5.0 10.0 0.00 0.00 0.00 17 1015.5
20260507215834 72 192 5.0 10.0 0.00 0.00 0.00 18 1015.6
20260507215310 72 250 6.0 11.0 0.00 0.00 0.00 20 1015.6
20260507214823 72 211 6.0 11.0 0.00 0.00 0.00 19 1015.7
20260507214321 72 254 6.0 11.0 0.00 0.00 0.00 19 1015.9
20260507213835 72 169 4.0 12.0 0.00 0.00 0.00 21 1015.9
20260507213311 72 211 7.0 12.0 0.00 0.00 0.00 24 1016.1
20260507212825 72 192 4.0 10.0 0.00 0.00 0.00 22 1016.2
20260507212326 71 239 6.0 11.0 0.00 0.00 0.00 22 1016.3
20260507211839 71 223 4.0 9.0 0.00 0.00 0.00 21 1016.4
20260507211338 71 223 2.0 9.0 0.00 0.00 0.00 19 1016.4
20260507210825 71 167 2.0 9.0 0.00 0.00 0.00 20 1016.4
20260507210327 71 148 3.0 9.0 0.00 0.00 0.00 20 1016.6
20260507205840 71 232 6.0 9.0 0.00 0.00 0.00 19 1016.7
20260507205317 70 200 3.0 9.0 0.00 0.00 0.00 20 1016.8
20260507204829 69 217 4.0 9.0 0.00 0.00 0.00 19 1016.8
20260507204328 69 194 2.0 9.0 0.00 0.00 0.00 19 1016.9
20260507203819 69 70 4.0 8.0 0.00 0.00 0.00 18 1017.1
20260507203316 69 107 2.0 9.0 0.00 0.00 0.00 18 1017.2
20260507202809 69 202 4.0 9.0 0.00 0.00 0.00 22 1017.3
20260507202329 69 164 1.0 10.0 0.00 0.00 0.00 19 1017.3
20260507201820 69 165 4.0 10.0 0.00 0.00 0.00 19 1017.4
20260507201317 69 163 3.0 8.0 0.00 0.00 0.00 21 1017.4
20260507200809 68 187 4.0 10.0 0.00 0.00 0.00 19 1017.5
20260507200328 68 69 1.0 10.0 0.00 0.00 0.00 18 1017.6
20260507195819 67 138 3.0 9.0 0.00 0.00 0.00 19 1017.7
20260507195318 67 194 4.0 9.0 0.00 0.00 0.00 20 1017.8
20260507194809 67 168 3.0 8.0 0.00 0.00 0.00 21 1017.9
20260507194350 66 71 2.0 10.0 0.00 0.00 0.00 21 1017.9
20260507193820 66 102 5.0 10.0 0.00 0.00 0.00 20 1018.0
20260507193318 66 123 3.0 10.0 0.00 0.00 0.00 24 1018.1
20260507192830 65 163 2.0 11.0 0.00 0.00 0.00 21 1018.1
20260507192311 65 76 6.0 11.0 0.00 0.00 0.00 21 1018.3
20260507191823 65 92 7.0 10.0 0.00 0.00 0.00 22 1018.3
20260507191320 65 61 6.0 13.0 0.00 0.00 0.00 23 1018.4
20260507190811 64 9 6.0 13.0 0.00 0.00 0.00 24 1018.5
20260507190309 64 96 5.0 15.0 0.00 0.00 0.00 23 1018.5
20260507185821 64 82 6.0 15.0 0.00 0.00 0.00 22 1018.5
20260507185319 63 71 6.0 12.0 0.00 0.00 0.00 23 1018.7
20260507184809 63 56 7.0 12.0 0.00 0.00 0.00 23 1018.7
20260507184328 63 95 6.0 13.0 0.00 0.00 0.00 25 1018.9
20260507183842 63 43 6.0 13.0 0.00 0.00 0.00 25 1018.9
20260507183318 62 32 5.0 10.0 0.00 0.00 0.00 24 1018.9
20260507182809 62 40 5.0 12.0 0.00 0.00 0.00 24 1019.1
20260507182328 62 327 7.0 12.0 0.00 0.00 0.00 25 1019.1
20260507181820 62 161 2.0 12.0 0.00 0.00 0.00 24 1019.2
20260507181318 62 36 5.0 13.0 0.00 0.00 0.00 26 1019.2
20260507180810 61 55 6.0 13.0 0.00 0.00 0.00 29 1019.4
20260507180329 61 34 6.0 12.0 0.00 0.00 0.00 27 1019.5
20260507175820 60 92 6.0 15.0 0.00 0.00 0.00 27 1019.4
20260507175340 60 32 6.0 17.0 0.00 0.00 0.00 29 1019.6
20260507174810 60 22 9.0 17.0 0.00 0.00 0.00 29 1019.8
20260507174312 59 34 7.0 13.0 0.00 0.00 0.00 29 1019.9
20260507173824 59 291 6.0 14.0 0.00 0.00 0.00 30 1019.9
20260507173322 59 34 8.0 14.0 0.00 0.00 0.00 29 1020.1
20260507172815 58 97 5.0 15.0 0.00 0.00 0.00 32 1020.2
20260507172311 58 43 2.0 15.0 0.00 0.00 0.00 33 1020.3
20260507171824 58 26 8.0 15.0 0.00 0.00 0.00 31 1020.4
20260507171322 58 15 4.0 12.0 0.00 0.00 0.00 31 1020.5
20260507170812 58 326 5.0 15.0 0.00 0.00 0.00 32 1020.5
20260507170311 57 360 8.0 15.0 0.00 0.00 0.00 31 1020.6
20260507165825 57 40 8.0 14.0 0.00 0.00 0.00 32 1020.5
20260507165322 56 333 7.0 14.0 0.00 0.00 0.00 29 1020.6
20260507164812 57 18 8.0 13.0 0.00 0.00 0.00 29 1020.7
20260507164333 56 26 7.0 15.0 0.00 0.00 0.00 32 1020.8
20260507163825 56 355 6.0 15.0 0.00 0.00 0.00 30 1020.8
20260507163322 56 9 7.0 16.0 0.00 0.00 0.00 30 1020.8
20260507162835 55 34 7.0 16.0 0.00 0.00 0.00 33 1020.9
20260507162333 54 68 7.0 16.0 0.00 0.00 0.00 33 1021.1
20260507161826 54 47 8.0 17.0 0.00 0.00 0.00 36 1021.2
20260507161323 53 37 10.0 17.0 0.00 0.00 0.00 35 1021.3
20260507160816 53 15 6.0 15.0 0.00 0.00 0.00 38 1021.2
20260507160312 52 11 8.0 15.0 0.00 0.00 0.00 41 1021.3
20260507155825 51 355 8.0 12.0 0.00 0.00 0.00 42 1021.4
20260507155327 50 65 6.0 13.0 0.00 0.00 0.00 45 1021.4
20260507154819 49 96 6.0 14.0 0.00 0.00 0.00 46 1021.4
20260507154317 49 67 7.0 14.0 0.00 0.00 0.00 49 1021.6
20260507153830 48 40 5.0 12.0 0.00 0.00 0.00 50 1021.6
20260507153327 48 32 5.0 12.0 0.00 0.00 0.00 53 1021.6
20260507152818 47 19 6.0 13.0 0.00 0.00 0.00 54 1021.6
20260507152336 46 40 7.0 13.0 0.00 0.00 0.00 55 1021.6
20260507151828 46 55 5.0 11.0 0.00 0.00 0.00 57 1021.6
20260507151326 45 71 6.0 11.0 0.00 0.00 0.00 58 1021.6
20260507150817 44 21 5.0 11.0 0.00 0.00 0.00 59 1021.7
20260507150316 44 66 5.0 11.0 0.00 0.00 0.00 61 1021.7
20260507145828 44 24 5.0 10.0 0.00 0.00 0.00 61 1021.8
20260507145325 43 22 3.0 6.0 0.00 0.00 0.00 63 1021.8
20260507144816 42 74 3.0 6.0 0.00 0.00 0.00 64 1021.9
20260507144337 42 24 3.0 7.0 0.00 0.00 0.00 65 1021.8
20260507143828 42 39 4.0 7.0 0.00 0.00 0.00 65 1021.9
20260507143327 41 28 3.0 5.0 0.00 0.00 0.00 65 1022.0
20260507142819 41 75 2.0 6.0 0.00 0.00 0.00 66 1022.0
20260507142317 41 96 3.0 6.0 0.00 0.00 0.00 65 1022.0
20260507141829 42 82 3.0 7.0 0.00 0.00 0.00 65 1022.2
20260507141327 42 27 3.0 9.0 0.00 0.00 0.00 66 1022.2
20260507140820 41 66 5.0 9.0 0.00 0.00 0.00 66 1022.2
20260507140317 41 11 2.0 8.0 0.00 0.00 0.00 67 1022.2
20260507135810 41 22 2.0 8.0 0.00 0.00 0.00 68 1022.3
20260507135312 40 10 4.0 8.0 0.00 0.00 0.00 68 1022.4
20260507134841 40 17 4.0 6.0 0.00 0.00 0.00 70 1022.3
20260507134322 39 10 3.0 6.0 0.00 0.00 0.00 72 1022.4
20260507133813 38 9 4.0 7.0 0.00 0.00 0.00 73 1022.3
20260507133332 38 355 3.0 6.0 0.00 0.00 0.00 74 1022.4
20260507132824 37 61 3.0 6.0 0.00 0.00 0.00 76 1022.4
20260507132321 36 15 3.0 5.0 0.00 0.00 0.00 78 1022.4
20260507131813 35 65 2.0 4.0 0.00 0.00 0.00 80 1022.3
20260507131312 34 360 0.0 3.0 0.00 0.00 0.00 82 1022.4
20260507130824 33 360 1.0 3.0 0.00 0.00 0.00 83 1022.4
20260507130322 33 333 1.0 1.0 0.00 0.00 0.00 84 1022.3
20260507125812 32 333 0.0 1.0 0.00 0.00 0.00 84 1022.3
20260507125310 31 333 0.0 2.0 0.00 0.00 0.00 84 1022.4
20260507124844 31 333 1.0 2.0 0.00 0.00 0.00 84 1022.4
20260507124321 30 333 0.0 2.0 0.00 0.00 0.00 84 1022.3
20260507123811 29 305 0.0 2.0 0.00 0.00 0.00 84 1022.2
20260507123310 29 305 1.0 2.0 0.00 0.00 0.00 84 1022.2
20260507122822 29 305 0.0 2.0 0.00 0.00 0.00 83 1022.2
20260507122319 29 305 0.0 2.0 0.00 0.00 0.00 82 1022.2
20260507121832 29 305 0.0 1.0 0.00 0.00 0.00 82 1022.0
20260507121309 29 305 0.0 2.0 0.00 0.00 0.00 82 1022.1
20260507120821 29 305 1.0 2.0 0.00 0.00 0.00 82 1022.0
20260507120319 29 305 1.0 2.0 0.00 0.00 0.00 81 1022.1
20260507115810 29 305 1.0 2.0 0.00 0.00 0.00 81 1022.1
20260507115330 29 305 0.0 1.0 0.00 0.00 0.00 81 1022.0
20260507114821 30 305 0.0 1.0 0.00 0.00 0.00 81 1022.0
20260507114323 30 305 1.0 1.0 0.00 0.00 0.00 81 1021.9
20260507113814 30 305 0.0 1.0 0.00 0.00 0.00 81 1021.9
20260507113311 30 305 0.0 1.0 0.00 0.00 0.00 81 1022.0
20260507112824 30 305 1.0 1.0 0.00 0.00 0.00 81 1022.1
20260507112323 30 305 0.0 2.0 0.00 0.00 0.00 81 1022.0
20260507111814 31 305 1.0 2.0 0.00 0.00 0.00 81 1022.0
20260507111312 31 305 1.0 2.0 0.00 0.00 0.00 81 1021.8
20260507110825 31 305 0.0 3.0 0.00 0.00 0.00 81 1021.8
20260507110344 31 330 1.0 3.0 0.00 0.00 0.00 81 1021.8
20260507105814 31 50 0.0 2.0 0.00 0.00 0.00 81 1021.8
20260507105312 31 50 0.0 2.0 0.00 0.00 0.00 81 1021.8
20260507104825 31 50 1.0 2.0 0.00 0.00 0.00 81 1021.7
20260507104322 32 50 1.0 1.0 0.00 0.00 0.00 80 1021.7
20260507103813 32 50 0.0 2.0 0.00 0.00 0.00 81 1021.7
20260507103311 32 50 1.0 2.0 0.00 0.00 0.00 80 1021.7
20260507102824 32 50 1.0 2.0 0.00 0.00 0.00 80 1021.8
20260507102343 32 50 1.0 2.0 0.00 0.00 0.00 80 1021.8
20260507101814 33 50 0.0 0.0 0.00 0.00 0.00 80 1021.8
20260507101312 33 50 0.0 1.0 0.00 0.00 0.00 80 1021.8
20260507100824 33 50 0.0 1.0 0.00 0.00 0.00 80 1021.8
20260507100322 33 50 0.0 1.0 0.00 0.00 0.00 80 1021.8
20260507095812 33 50 0.0 1.0 0.00 0.00 0.00 80 1021.8
20260507095315 33 50 0.0 3.0 0.00 0.00 0.00 79 1021.8
20260507094824 33 50 2.0 3.0 0.00 0.00 0.00 79 1021.8
20260507094322 33 76 1.0 3.0 0.00 0.00 0.00 78 1021.7
20260507093814 33 76 2.0 4.0 0.00 0.00 0.00 78 1021.7
20260507093311 33 76 2.0 4.0 0.00 0.00 0.00 77 1021.6
20260507092824 34 26 1.0 2.0 0.00 0.00 0.00 76 1021.7
20260507092321 34 351 0.0 1.0 0.00 0.00 0.00 75 1021.6
20260507091812 34 351 1.0 1.0 0.00 0.00 0.00 75 1021.6
20260507091332 34 351 0.0 2.0 0.00 0.00 0.00 74 1021.5
20260507090824 34 351 1.0 3.0 0.00 0.00 0.00 74 1021.4
20260507090322 34 350 1.0 3.0 0.00 0.00 0.00 75 1021.3
20260507085812 35 345 1.0 3.0 0.00 0.00 0.00 74 1021.3
20260507085311 35 344 1.0 3.0 0.00 0.00 0.00 74 1021.3
20260507084824 35 330 1.0 2.0 0.00 0.00 0.00 74 1021.3
20260507084322 35 326 1.0 2.0 0.00 0.00 0.00 73 1021.3
20260507083835 35 326 0.0 2.0 0.00 0.00 0.00 72 1021.4
20260507083333 36 326 0.0 2.0 0.00 0.00 0.00 72 1021.4
20260507082824 36 326 1.0 1.0 0.00 0.00 0.00 71 1021.4
20260507082323 36 326 0.0 1.0 0.00 0.00 0.00 70 1021.3
20260507081815 37 326 0.0 2.0 0.00 0.00 0.00 70 1021.2
20260507081313 37 313 0.0 3.0 0.00 0.00 0.00 71 1021.2
20260507080825 37 307 2.0 3.0 0.00 0.00 0.00 71 1021.2
20260507080327 37 321 2.0 3.0 0.00 0.00 0.00 72 1021.2
20260507075816 37 313 2.0 3.0 0.00 0.00 0.00 72 1021.2
20260507075314 37 348 1.0 2.0 0.00 0.00 0.00 72 1021.2
20260507074828 37 348 0.0 2.0 0.00 0.00 0.00 73 1021.2
20260507074325 37 348 0.0 5.0 0.00 0.00 0.00 73 1021.2
20260507073817 36 348 2.0 5.0 0.00 0.00 0.00 73 1021.2
20260507073315 36 348 2.0 4.0 0.00 0.00 0.00 72 1021.2
20260507072829 36 315 1.0 2.0 0.00 0.00 0.00 72 1021.2
20260507072326 36 315 0.0 2.0 0.00 0.00 0.00 72 1021.2
20260507071817 37 315 0.0 2.0 0.00 0.00 0.00 72 1021.1
20260507071315 37 315 0.0 2.0 0.00 0.00 0.00 72 1021.1
20260507070850 37 355 1.0 2.0 0.00 0.00 0.00 72 1021.0
20260507070348 37 355 0.0 1.0 0.00 0.00 0.00 71 1021.0
20260507065818 37 355 0.0 1.0 0.00 0.00 0.00 71 1021.0
20260507065316 37 355 0.0 2.0 0.00 0.00 0.00 70 1020.9
20260507064810 37 355 0.0 2.0 0.00 0.00 0.00 70 1020.8
20260507064329 37 355 0.0 1.0 0.00 0.00 0.00 71 1020.9
20260507063819 38 355 0.0 1.0 0.00 0.00 0.00 70 1020.8
20260507063318 38 355 0.0 0.0 0.00 0.00 0.00 70 1020.8
20260507062831 38 355 0.0 4.0 0.00 0.00 0.00 70 1020.8
20260507062310 38 355 1.0 4.0 0.00 0.00 0.00 69 1020.6
20260507061823 38 355 1.0 4.0 0.00 0.00 0.00 69 1020.6
20260507061323 38 290 0.0 0.0 0.00 0.00 0.00 69 1020.6
20260507060814 38 290 0.0 0.0 0.00 0.00 0.00 68 1020.5
20260507060311 39 290 0.0 0.0 0.00 0.00 0.00 68 1020.5
20260507055846 39 290 0.0 0.0 0.00 0.00 0.00 67 1020.4
20260507055322 39 290 0.0 0.0 0.00 0.00 0.00 67 1020.3
20260507054813 40 290 0.0 0.0 0.00 0.00 0.00 67 1020.2
20260507054333 40 290 0.0 2.0 0.00 0.00 0.00 66 1020.2
20260507053847 40 290 0.0 2.0 0.00 0.00 0.00 66 1020.1
20260507053324 40 290 0.0 0.0 0.00 0.00 0.00 65 1020.1
20260507052837 41 290 0.0 0.0 0.00 0.00 0.00 65 1020.1
20260507052313 41 290 0.0 4.0 0.00 0.00 0.00 64 1020.0
20260507051827 41 290 0.0 4.0 0.00 0.00 0.00 64 1020.0
20260507051324 42 294 2.0 4.0 0.00 0.00 0.00 64 1019.9
20260507050816 42 304 2.0 4.0 0.00 0.00 0.00 64 1019.9
20260507050313 42 314 1.0 3.0 0.00 0.00 0.00 63 1020.0
20260507045828 42 316 1.0 2.0 0.00 0.01 0.00 62 1019.8
20260507045325 42 321 1.0 2.0 0.00 0.01 0.00 62 1019.8
20260507044818 43 329 0.0 4.0 0.00 0.01 0.00 61 1019.8
20260507044315 43 322 2.0 4.0 0.00 0.01 0.00 61 1019.6
20260507043828 43 314 3.0 5.0 0.00 0.01 0.00 61 1019.5
20260507043325 43 287 4.0 5.0 0.00 0.01 0.00 61 1019.5
20260507042817 44 306 3.0 5.0 0.00 0.01 0.00 60 1019.6
20260507042336 44 296 3.0 5.0 0.00 0.01 0.00 60 1019.5
20260507041829 44 311 2.0 5.0 0.00 0.01 0.00 60 1019.4
20260507041323 44 303 3.0 5.0 0.00 0.01 0.00 59 1019.3
20260507040814 44 302 3.0 5.0 0.00 0.01 0.00 59 1019.2
20260507040316 45 302 3.0 5.0 0.00 0.01 0.00 58 1019.2
20260507035828 45 324 2.0 4.0 0.00 0.01 0.00 57 1019.1
20260507035348 45 309 2.0 4.0 0.00 0.01 0.00 57 1019.1
20260507034818 46 315 1.0 4.0 0.00 0.01 0.00 56 1019.1
20260507034316 46 338 1.0 4.0 0.00 0.01 0.00 55 1018.9
20260507033829 46 347 1.0 6.0 0.00 0.01 0.00 55 1018.9
20260507033327 47 302 3.0 6.0 0.00 0.01 0.00 55 1018.9
20260507032819 47 325 2.0 6.0 0.00 0.01 0.00 54 1018.7
20260507032318 47 288 4.0 8.0 0.00 0.01 0.00 54 1018.5
20260507031809 47 330 3.0 8.0 0.00 0.01 0.00 53 1018.4
20260507031328 48 336 3.0 8.0 0.00 0.01 0.00 52 1018.4
20260507030820 48 17 4.0 8.0 0.00 0.01 0.00 51 1018.2
20260507030319 49 338 3.0 10.0 0.00 0.01 0.00 49 1018.1
20260507025810 49 355 4.0 10.0 0.00 0.01 0.00 47 1018.1
20260507025328 49 348 5.0 9.0 0.00 0.01 0.00 47 1017.9
20260507024819 49 355 1.0 4.0 0.00 0.01 0.00 44 1017.7
20260507024316 49 326 1.0 3.0 0.00 0.01 0.00 44 1017.5
20260507023828 49 238 0.0 4.0 0.00 0.01 0.00 44 1017.3
20260507023323 50 277 2.0 4.0 0.00 0.01 0.00 43 1017.1
20260507022813 50 238 1.0 4.0 0.00 0.01 0.00 43 1016.9
20260507022316 50 225 2.0 4.0 0.00 0.01 0.00 42 1016.8
20260507021828 51 231 2.0 4.0 0.00 0.01 0.00 41 1016.7
20260507021348 51 253 2.0 6.0 0.00 0.01 0.00 41 1016.7
20260507020818 52 219 3.0 6.0 0.00 0.01 0.00 40 1016.6
20260507020316 52 207 4.0 6.0 0.00 0.01 0.00 40 1016.5
20260507015851 53 186 3.0 5.0 0.00 0.01 0.00 39 1016.4
20260507015328 53 187 3.0 7.0 0.00 0.01 0.00 38 1016.3
20260507014818 53 213 2.0 7.0 0.00 0.01 0.00 38 1016.3